Location: Black Swamp Observatory
(41.3920°N, 84.1250°W)
Time: 03:17:23
(UTC-05:00)

Vanguard 3 - All Passes

Search period start: 28 January 2022 00:00
Search period end: 07 February 2022 00:00
Orbit: 508 x 3260 km, 33.3° (Epoch: 27 January)

Date Brightness Start Highest point End Pass type
(mag) Time Alt. Az. Time Alt. Az. Time Alt. Az.
28 Jan - 08:20:39 10° S 08:30:06 17° SSE 08:37:46 10° ESE daylight
28 Jan - 10:30:30 10° SW 10:43:59 35° SSE 10:52:32 10° E daylight
28 Jan - 12:45:23 10° WSW 12:57:02 49° S 13:03:41 10° ESE daylight
28 Jan - 15:01:08 10° W 15:08:49 37° SSW 15:13:35 10° SE daylight
28 Jan - 17:18:11 10° SW 17:19:06 10° SW 17:19:57 10° SSW daylight
29 Jan - 09:14:42 10° SSW 09:28:17 29° SSE 09:37:49 10° E daylight
29 Jan - 11:28:15 10° SW 11:42:00 46° S 11:50:03 10° E daylight
29 Jan - 13:44:14 10° WSW 13:54:35 48° S 14:00:32 10° ESE daylight
29 Jan - 16:00:08 10° W 16:05:37 23° SSW 16:09:29 10° SSE daylight
30 Jan - 08:00:18 10° S 08:12:21 21° SSE 08:21:54 10° ESE daylight
30 Jan - 10:11:23 10° SW 10:26:28 41° SSE 10:35:59 10° E daylight
30 Jan - 12:26:55 10° WSW 12:39:51 53° S 12:47:09 10° ESE daylight
30 Jan - 14:43:14 10° W 14:51:48 38° SSW 14:57:00 10° SE daylight
31 Jan - 06:48:48 10° SSE 06:56:22 14° SE 07:03:12 10° ESE visible
31 Jan - 08:55:17 10° SSW 09:10:33 34° SSE 09:21:17 10° E daylight
31 Jan - 11:09:29 10° WSW 11:24:35 51° S 11:33:27 10° E daylight
31 Jan - 13:25:59 10° W 13:37:28 50° S 13:43:58 10° ESE daylight
31 Jan - 15:42:30 10° W 15:48:32 23° SW 15:52:44 10° SSE daylight
01 Feb - 07:40:26 10° SSW 07:54:26 26° SSE 08:05:32 10° E daylight
01 Feb - 09:52:22 10° SW 10:08:49 46° SSE 10:19:18 10° E daylight
01 Feb - 12:08:24 10° WSW 12:22:32 56° S 12:30:33 10° ESE daylight
01 Feb - 14:25:11 10° W 14:34:41 38° SSW 14:40:23 10° SE daylight
02 Feb - 06:27:48 10° S 06:38:21 17° SE 06:47:45 10° ESE visible
02 Feb - 08:36:03 10° SW 08:52:40 39° SSE 09:04:33 10° E daylight
02 Feb - 10:50:44 10° WSW 11:07:02 55° S 11:16:46 10° E daylight
02 Feb - 13:07:38 10° W 13:20:14 51° SSW 13:27:21 10° ESE daylight
02 Feb - 15:24:44 10° W 15:31:22 23° SW 15:35:55 10° SSE daylight
03 Feb - 07:20:57 10° SSW 07:36:22 30° SSE 07:48:51 10° E visible
03 Feb - 09:33:28 10° SW 09:51:02 51° SSE 10:02:30 10° E daylight
03 Feb - 11:49:48 10° WSW 12:05:07 58° S 12:13:52 10° ESE daylight
03 Feb - 14:07:02 10° W 14:17:28 38° SSW 14:23:41 10° SE daylight
04 Feb - 06:07:42 10° S 06:20:10 21° SE 06:31:29 10° E visible
04 Feb - 08:17:00 10° SW 08:34:39 43° SSE 08:47:39 10° E daylight
04 Feb - 10:32:00 10° WSW 10:49:23 59° S 10:59:58 10° E daylight
04 Feb - 12:49:13 10° W 13:02:52 52° SSW 13:10:40 10° ESE daylight
04 Feb - 15:06:52 10° W 15:14:04 22° SW 15:19:02 10° S daylight
05 Feb - 04:59:07 10° SSE 05:04:16 11° SE 05:09:21 10° ESE visible
05 Feb - 07:01:45 10° SSW 07:18:09 34° SSE 07:31:54 10° E visible
05 Feb - 09:14:39 10° SW 09:33:06 55° SSE 09:45:34 10° E daylight
05 Feb - 11:31:12 10° W 11:47:34 60° S 11:57:08 10° ESE daylight
05 Feb - 13:48:46 10° W 14:00:06 38° SSW 14:06:55 10° SE daylight
06 Feb - 05:48:09 10° S 06:01:52 24° SE 06:14:43 10° E visible
06 Feb - 07:58:09 10° SW 08:16:29 47° SSE 08:30:35 10° E daylight
06 Feb - 10:13:20 10° WSW 10:31:35 62° S 10:43:05 10° E daylight
06 Feb - 12:30:42 10° W 12:45:24 52° SSW 12:53:54 10° SE daylight
06 Feb - 14:48:55 10° W 14:56:39 22° SW 15:02:02 10° S daylight
